This is the latest recevied weather packets stored in our database for station/object K8GLX. If no packets are shown the sender has not sent any weather packets the latest 10 day(s).
| Time | Temp. | Humidity | Pressure | Rain* | Wind** | Luminosity | Snow |
|---|---|---|---|---|---|---|---|
| 1777230733 | 12.22° C | 73% | 1020.4 hPa | 0 mm | - | 690 W/m² | - |
| 1777230428 | 12.78° C | 76% | 1020.4 hPa | 0 mm | - | 715 W/m² | - |
| 1777230133 | 12.22° C | 75% | 1020.4 hPa | 0 mm | - | 704 W/m² | - |
| 1777229828 | 12.78° C | 76% | 1020.3 hPa | 0 mm | - | 699 W/m² | - |
| 1777229661 | 12.22° C | 76% | 1020.5 hPa | 0 mm | - | 718 W/m² | - |
| 1777229228 | 12.22° C | 79% | 1020.5 hPa | 0 mm | - | 712 W/m² | - |
| 1777228934 | 11.67° C | 79% | 1020.4 hPa | 0 mm | - | 734 W/m² | - |
| 1777228628 | 11.67° C | 80% | 1020.4 hPa | 0 mm | - | 742 W/m² | - |
| 1777228460 | 11.67° C | 81% | 1020.4 hPa | 0 mm | - | 761 W/m² | - |
| 1777228027 | 11.67° C | 81% | 1020.1 hPa | 0 mm | - | 749 W/m² | - |
| 1777227733 | 11.67° C | 81% | 1020.5 hPa | 0 mm | - | 774 W/m² | - |
| 1777227427 | 11.67° C | 82% | 1020.4 hPa | 0 mm | - | 748 W/m² | - |
| 1777227133 | 11.11° C | 82% | 1020.4 hPa | 0 mm | - | 729 W/m² | - |
| 1777226827 | 11.67° C | 82% | 1020.4 hPa | 0 mm | - | 776 W/m² | - |
| 1777226533 | 11.67° C | 81% | 1020.3 hPa | 0 mm | - | 741 W/m² | - |
| 1777226353 | 11.67° C | 81% | 1020.4 hPa | 0 mm | - | 719 W/m² | - |
| 1777226060 | 11.67° C | 80% | 1020.4 hPa | 0 mm | - | 753 W/m² | - |
| 1777225631 | 11.67° C | 81% | 1020.4 hPa | 0 mm | - | 745 W/m² | - |
| 1777225334 | 12.22° C | 79% | 1020.6 hPa | 0 mm | - | 740 W/m² | - |
| 1777225028 | 12.22° C | 80% | 1020.5 hPa | 0 mm | - | 780 W/m² | - |
| 1777224734 | 12.22° C | 80% | 1020.6 hPa | 0 mm | - | 764 W/m² | - |
| 1777224428 | 12.78° C | 80% | 1020.5 hPa | 0 mm | - | 909 W/m² | - |
| 1777224134 | 12.22° C | 81% | 1020.4 hPa | 0 mm | - | 645 W/m² | - |
| 1777223828 | 12.22° C | 80% | 1020.4 hPa | 0 mm | - | 494 W/m² | - |
| 1777223660 | 12.78° C | 79% | 1020.5 hPa | 0 mm | - | 596 W/m² | - |
* Rain latest hour (hover to see other rain measurements)
** Current wind speed in m/s (hover to see current wind gust speed)